Overview Statistics Trail Chart Weather Telemetry Raw packets
 

This is the latest recevied weather packets stored in our database for station/object ED1ZAI-14. If no packets are shown the sender has not sent any weather packets the latest 10 day(s).

<< 1 2 3 4 5 6 7 >>
Time Temp. Humidity Pressure Rain* Wind** Luminosity Snow
1788480254 18.33° C 29% 818.9 hPa - - - -
1788478454 18.33° C 29% 818.9 hPa - - - -
1788476654 18.89° C 30% 819 hPa - - - -
1788474854 18.89° C 28% 818.9 hPa - - - -
1788473054 18.89° C 27% 818.9 hPa - - - -
1788471254 19.44° C 27% 819 hPa - - - -
1788469454 19.44° C 28% 819 hPa - - - -
1788467654 19.44° C 28% 819.1 hPa - - - -
1788465853 19.44° C 27% 818.9 hPa - - - -
1788464053 20° C 26% 818.8 hPa - - - -
1788462253 20° C 27% 818.6 hPa - - - -
1788460453 21.11° C 27% 818.5 hPa - - - -
1788458655 22.22° C 25% 818.5 hPa - - - -
1788456857 23.33° C 22% 818.5 hPa - - - -
1788455057 23.89° C 20% 818.4 hPa - - - -
1788453257 26.11° C 18% 818.4 hPa - - - -
1788451457 26.11° C 18% 818.2 hPa - - - -
1788449657 27.22° C 17% 818.2 hPa - - - -
1788447857 28.33° C 18% 818.4 hPa - - - -
1788446060 28.89° C 19% 818.5 hPa - - - -
1788444256 28.33° C 19% 818.6 hPa - - - -
1788442455 28.33° C 19% 818.6 hPa - - - -
1788440655 28.33° C 22% 818.7 hPa - - - -
1788438855 29.44° C 22% 818.7 hPa - - - -
1788437055 28.89° C 23% 818.8 hPa - - - -

* Rain since midnight (hover to see other rain measurements)
** Current wind speed in m/s (hover to see current wind gust speed)